TimePST,TemperatureF,Dew PointF,Humidity,Sea Level PressureIn,VisibilityMPH,Wind Direction,Wind SpeedMPH,Gust SpeedMPH,PrecipitationIn,Events,Conditions,WindDirDegrees,DateUTC
12:54 AM,50.0,25.0,38,30.10,10.0,East,5.8,-,N/A,,Clear,90,2013-01-22 08:54:00
1:54 AM,48.9,24.1,38,30.10,10.0,ESE,3.5,-,N/A,,Clear,110,2013-01-22 09:54:00
2:54 AM,46.9,24.1,41,30.09,10.0,East,3.5,-,N/A,,Clear,100,2013-01-22 10:54:00
3:54 AM,46.0,25.0,44,30.07,10.0,ESE,3.5,-,N/A,,Clear,110,2013-01-22 11:54:00
4:54 AM,48.9,21.0,33,30.09,10.0,Calm,Calm,-,N/A,,Clear,0,2013-01-22 12:54:00
5:54 AM,46.0,23.0,40,30.09,10.0,East,6.9,-,N/A,,Clear,100,2013-01-22 13:54:00
6:54 AM,50.0,21.9,33,30.10,10.0,East,8.1,-,N/A,,Clear,100,2013-01-22 14:54:00
7:54 AM,46.9,24.1,41,30.09,10.0,Calm,Calm,-,N/A,,Clear,0,2013-01-22 15:54:00
8:54 AM,55.9,27.0,33,30.09,10.0,East,4.6,-,N/A,,Clear,90,2013-01-22 16:54:00
9:54 AM,57.0,35.1,44,30.11,10.0,West,5.8,-,N/A,,Clear,270,2013-01-22 17:54:00
10:54 AM,57.9,37.0,46,30.13,10.0,NW,4.6,-,N/A,,Clear,310,2013-01-22 18:54:00
11:54 AM,62.1,35.1,37,30.11,10.0,Variable,3.5,-,N/A,,Clear,0,2013-01-22 19:54:00
12:54 PM,60.1,39.9,47,30.09,10.0,West,4.6,-,N/A,,Clear,280,2013-01-22 20:54:00
1:54 PM,61.0,39.0,44,30.08,10.0,NW,4.6,-,N/A,,Clear,310,2013-01-22 21:54:00
2:54 PM,62.1,37.0,39,30.06,10.0,Calm,Calm,-,N/A,,Clear,0,2013-01-22 22:54:00
3:54 PM,63.0,32.0,31,30.06,10.0,WSW,4.6,-,N/A,,Clear,250,2013-01-22 23:54:00
4:54 PM,60.1,30.9,33,30.06,10.0,Calm,Calm,-,N/A,,Clear,0,2013-01-23 00:54:00
5:54 PM,55.9,37.0,49,30.04,10.0,Variable,3.5,-,N/A,,Clear,0,2013-01-23 01:54:00
6:54 PM,54.0,37.9,55,30.06,10.0,Calm,Calm,-,N/A,,Clear,0,2013-01-23 02:54:00
7:54 PM,53.1,35.1,50,30.06,10.0,East,3.5,-,N/A,,Clear,80,2013-01-23 03:54:00
8:54 PM,52.0,35.1,53,30.06,10.0,East,3.5,-,N/A,,Clear,80,2013-01-23 04:54:00
9:54 PM,51.1,36.0,56,30.08,10.0,East,4.6,-,N/A,,Clear,80,2013-01-23 05:54:00
10:54 PM,52.0,35.1,53,30.09,10.0,East,6.9,-,N/A,,Clear,100,2013-01-23 06:54:00
11:54 PM,52.0,34.0,50,30.08,10.0,East,5.8,-,N/A,,Clear,100,2013-01-23 07:54:00